Preview of NWS' New Version of Forecast
This preview is not operational and should not be used for support decisions.

Regional Weather Roundup (RWR)

Issued by National Weather Service (NWS)

                            
000
ASUS45 KCYS 250210
RWRWY 

WYOMING REGIONAL WEATHER ROUNDUP
NATIONAL WEATHER SERVICE CHEYENNE WY
800 PM MDT SAT AUG 24 2019

NOTE:  "FAIR" INDICATES FEW OR NO CLOUDS BELOW 12,000 FEET
WITH NO SIGNIFICANT WEATHER AND/OR OBSTRUCTIONS TO VISIBILITY.

WYZ001-250300-
...YELLOWSTONE NATIONAL PARK...
  
CITY           SKY/WX    TMP DP  RH WIND       PRES   REMARKS
LK YELLOWSTONE   N/A     65  34  31 W3        30.18S                  
W YELLOWSTONE  NOT AVBL                                               

$$
WYZ002>013-054>058-071-098>099-250300-
...NORTHERN WYOMING...
  
CITY           SKY/WX    TMP DP  RH WIND       PRES   REMARKS
JACKSON        MOCLDY    73  36  25 S8        30.07S                  
CODY           MOCLDY    78  42  27 S8        29.92R                  
GREYBULL       PTCLDY    83  43  24 CALM      29.82R                  
WORLAND        CLEAR     75  48  38 E7        29.84S                  
SHERIDAN       PTCLDY    73  54  51 CALM      29.86S                  
BUFFALO        PTCLDY    73  48  41 S3          N/A                   
GILLETTE       MOCLDY    68  59  73 SE6       29.91F                  
HULETT         FAIR      70  61  73 S5        29.93S                  
NEWCASTLE      FAIR      72  54  53 N16       29.92S                  

$$
WYZ014>020-022>026-101>103-250300-
...CENTRAL WYOMING...
  
CITY           SKY/WX    TMP DP  RH WIND       PRES   REMARKS
BIG PINEY      PTCLDY    71  33  24 NW13G23   30.13S                  
PINEDALE       PTCLDY    68  34  28 W7        30.14S                  
DUBOIS         FAIR      70  30  23 W12       30.10R                  
LANDER         PTCLDY    78  35  21 W10       29.96R                  
RIVERTON       CLEAR     82  37  20 S3        29.94S                  
CASPER         CLEAR     75  37  25 E5        29.96S                  
DOUGLAS        MOCLDY    71  47  42 E8        29.97R                  

$$
WYZ021-027>030-104>119-250300-
...SOUTHERN WYOMING...
  
CITY           SKY/WX    TMP DP  RH WIND       PRES   REMARKS
EVANSTON       CLEAR     72  29  20 W14       30.20R                  
KEMMERER       CLEAR     70  28  21 W14       30.18S                  
FORT BRIDGER   NOT AVBL                                               
ROCK SPRINGS   CLEAR     76  27  16 W14G25    30.12R                  
DIXON          FAIR      75  24  14 S14       30.12S                  
RAWLINS        CLEAR     76  27  16 W9        30.10R                  
SARATOGA       FAIR      72  28  20 SW6       30.13F                  
LARAMIE        PTCLDY    69  22  16 W9        30.15R                  
CHEYENNE       MOCLDY    69  51  52 SE10      30.08R                  
TORRINGTON     MOCLDY    72  58  61 E8        29.92R                  
PINE BLUFFS    FAIR      68  55  64 SE6       30.03R                  

$$
  

000
ASUS45 KCYS 250210
RWRWY 

WYOMING REGIONAL WEATHER ROUNDUP
NATIONAL WEATHER SERVICE CHEYENNE WY
800 PM MDT SAT AUG 24 2019

NOTE:  "FAIR" INDICATES FEW OR NO CLOUDS BELOW 12,000 FEET
WITH NO SIGNIFICANT WEATHER AND/OR OBSTRUCTIONS TO VISIBILITY.

WYZ001-250300-
YELLOWSTONE NATIONAL PARK
  
CITY           SKY/WX    TMP DP  RH WIND       PRES   REMARKS
LK YELLOWSTONE   N/A     65  34  31 W3        30.18S                  
W YELLOWSTONE  NOT AVBL                                               

$$
WYZ002>013-054>058-071-098>099-250300-
NORTHERN WYOMING
  
CITY           SKY/WX    TMP DP  RH WIND       PRES   REMARKS
JACKSON        FAIR      73  36  25 S8        30.07S                  
CODY           FAIR      78  42  27 S8        29.92R                  
GREYBULL       FAIR      83  43  24 CALM      29.82R                  
WORLAND        FAIR      75  48  38 E7        29.84S                  
SHERIDAN       FAIR      73  54  51 CALM      29.86S                  
BUFFALO        FAIR      73  48  41 S3          N/A                   
GILLETTE       FAIR      68  59  73 SE6       29.91F                  
HULETT         FAIR      70  61  73 S5        29.93                   
NEWCASTLE      FAIR      72  54  53 N16       29.92                   

$$
WYZ014>020-022>026-101>103-250300-
CENTRAL WYOMING
  
CITY           SKY/WX    TMP DP  RH WIND       PRES   REMARKS
BIG PINEY      FAIR      71  33  24 NW13G23   30.13S                  
PINEDALE       FAIR      68  34  28 W7        30.14                   
DUBOIS         FAIR      70  30  23 W12       30.10                   
LANDER         FAIR      78  35  21 W10       29.96R                  
RIVERTON       FAIR      82  37  20 S3        29.94S                  
CASPER         FAIR      75  37  25 E5        29.96S                  
DOUGLAS        FAIR      71  47  42 E8        29.97R                  

$$
WYZ021-027>030-104>119-250300-
SOUTHERN WYOMING
  
CITY           SKY/WX    TMP DP  RH WIND       PRES   REMARKS
EVANSTON       FAIR      72  29  20 W14       30.20R                  
KEMMERER       FAIR      70  28  21 W14       30.18                   
ROCK SPRINGS   FAIR      76  27  16 W14G25    30.12R                  
DIXON          FAIR      75  24  14 S14       30.12S                  
RAWLINS        FAIR      76  27  16 W9        30.10R                  
SARATOGA       FAIR      72  28  20 SW6       30.13F                  
LARAMIE        FAIR      69  22  16 W9        30.15R                  
CHEYENNE       FAIR      69  51  52 SE10      30.08R                  
TORRINGTON     FAIR      72  58  61 E8        29.92R                  
PINE BLUFFS    FAIR      68  55  64 SE6       30.03R                  

$$